FW6396 Weather Reports


time (UTC)temp
F
wind
direction
speed
knots
gust
knots
rain 1hr
in
rain 24hr
in
rain mn
in
humidity
%
barometer
mb
20260508183052 53 0 0.0 0.0 0.00 0.00 0.00 64 1020.3
20260508181605 54 0 0.0 0.0 0.00 0.00 0.00 63 1020.4
20260508180104 55 0 0.0 0.0 0.00 0.00 0.00 56 1020.2
20260508174603 56 0 0.0 0.9 0.00 0.00 0.00 54 1020.1
20260508173047 56 0 0.0 0.0 0.00 0.00 0.00 53 1019.8
20260508171552 56 0 0.0 0.0 0.00 0.00 0.00 55 1019.7
20260508170058 57 0 0.0 0.9 0.00 0.00 0.00 55 1019.4
20260508164552 57 0 0.0 0.0 0.00 0.00 0.00 55 1019.0
20260508163052 57 0 0.0 0.0 0.00 0.00 0.00 55 1018.8
20260508161549 57 0 0.0 0.0 0.00 0.00 0.00 56 1018.7
20260508160050 57 0 0.0 0.0 0.00 0.00 0.00 59 1018.6
20260508154550 56 0 0.0 0.0 0.00 0.00 0.00 61 1018.5
20260508153054 56 0 0.0 0.0 0.00 0.00 0.00 59 1018.3
20260508151549 56 0 0.0 0.0 0.00 0.00 0.00 58 1018.2
20260508150056 56 0 0.0 0.0 0.00 0.00 0.00 63 1017.9
20260508144553 56 0 0.0 0.0 0.00 0.00 0.00 61 1017.7
20260508143056 56 0 0.0 0.9 0.00 0.00 0.00 63 1017.6
20260508141558 56 0 0.0 0.0 0.00 0.00 0.00 62 1017.6
20260508140059 56 0 0.0 0.0 0.00 0.00 0.00 61 1017.4
20260508134559 56 0 0.0 0.0 0.00 0.00 0.00 63 1017.2
20260508133055 58 0 0.0 0.9 0.00 0.00 0.00 56 1017.0
20260508131555 57 0 0.0 0.0 0.00 0.00 0.00 57 1016.8
20260508130051 57 0 0.0 0.0 0.00 0.00 0.00 60 1016.6
20260508124553 58 0 0.0 0.0 0.00 0.00 0.00 57 1016.4
20260508123106 58 0 0.0 0.9 0.00 0.00 0.00 56 1016.3
20260508121556 58 0 0.0 0.0 0.00 0.00 0.00 60 1016.1
20260508120052 57 0 0.0 0.9 0.00 0.00 0.00 59 1016.1
20260508114553 57 0 0.0 0.9 0.00 0.00 0.00 58 1015.9
20260508113059 55 0 0.0 0.0 0.00 0.00 0.00 61 1015.5
20260508111548 56 0 0.0 0.0 0.00 0.00 0.00 59 1015.3
20260508110053 57 0 0.0 0.0 0.00 0.00 0.00 58 1015.2
20260508104547 56 0 0.0 0.9 0.00 0.00 0.00 58 1015.0
20260508103050 57 0 0.0 0.0 0.00 0.00 0.00 58 1014.9
20260508101552 57 0 0.0 0.9 0.00 0.00 0.00 60 1014.4
20260508100049 55 0 0.0 0.0 0.00 0.00 0.00 62 1014.6
20260508094607 55 0 0.0 0.9 0.00 0.00 0.00 66 1014.5
20260508093047 53 0 0.0 0.0 0.00 0.00 0.00 67 1014.4
20260508091549 52 0 0.0 0.9 0.00 0.00 0.00 69 1014.3
20260508090055 52 0 0.0 0.0 0.00 0.00 0.00 71 1014.2
20260508084555 51 0 0.0 0.0 0.00 0.00 0.00 72 1014.1
20260508083055 50 0 0.0 0.0 0.00 0.00 0.00 72 1014.0
20260508081616 50 0 0.0 0.0 0.00 0.00 0.00 72 1013.8
20260508080054 50 0 0.0 0.0 0.00 0.00 0.00 73 1013.7
20260508074552 49 0 0.0 0.0 0.00 0.00 0.00 73 1013.8
20260508073050 49 0 0.0 0.0 0.00 0.00 0.00 74 1013.7
20260508071557 49 0 0.0 0.9 0.00 0.00 0.00 74 1013.6
20260508070054 49 0 0.0 0.0 0.00 0.00 0.00 74 1013.4
20260508064550 48 0 0.0 0.0 0.00 0.00 0.00 76 1013.1
20260508063102 48 0 0.0 0.0 0.00 0.00 0.00 76 1013.0
20260508061551 48 0 0.0 0.0 0.00 0.00 0.00 77 1012.8
20260508060054 48 0 0.0 0.9 0.00 0.00 0.00 77 1012.5
20260508054551 47 0 0.0 0.0 0.00 0.00 0.00 77 1012.5
20260508053057 47 0 0.0 0.0 0.00 0.00 0.00 78 1012.0
20260508051556 47 0 0.0 0.0 0.00 0.00 0.00 79 1011.9
20260508050054 47 0 0.0 0.0 0.00 0.00 0.00 79 1011.9
20260508044553 47 0 0.0 0.0 0.00 0.00 0.00 79 1012.0
20260508043057 47 0 0.0 0.0 0.00 0.00 0.00 79 1011.9
20260508041554 48 0 0.0 0.0 0.00 0.00 0.00 78 1012.0
20260508040058 48 0 0.0 0.0 0.00 0.00 0.00 77 1011.7
20260508034552 48 0 0.0 0.0 0.00 0.00 0.00 76 1011.3
20260508033055 49 0 0.0 0.0 0.00 0.00 0.00 76 1011.2
20260508031556 49 0 0.0 0.0 0.00 0.00 0.00 76 1011.1
20260508030054 49 0 0.0 0.0 0.00 0.00 0.00 76 1011.1
20260508024554 49 0 0.0 0.0 0.00 0.00 0.00 77 1011.2
20260508023052 49 0 0.0 0.0 0.00 0.00 0.00 77 1011.0
20260508021554 49 0 0.0 0.0 0.00 0.00 0.00 77 1011.0
20260508014551 49 0 0.0 0.0 0.00 0.00 0.00 79 1010.8
20260508013050 49 0 0.0 0.0 0.00 0.00 0.00 81 1010.8
20260508011548 49 0 0.0 0.0 0.00 0.00 0.00 81 1010.7
20260508010054 50 0 0.0 0.0 0.00 0.00 0.00 80 1010.8
20260508004552 50 0 0.0 0.0 0.00 0.00 0.00 78 1010.9
20260508003048 50 0 0.0 0.0 0.00 0.00 0.00 78 1010.7
20260508001552 50 0 0.0 0.0 0.00 0.00 0.00 78 1010.8
20260508000051 50 0 0.0 0.0 0.00 0.00 0.00 77 1010.7
20260507234549 50 0 0.0 0.0 0.00 0.00 0.00 76 1010.6
20260507233053 50 0 0.0 0.0 0.00 0.00 0.00 76 1010.6
20260507231555 50 0 0.0 0.0 0.00 0.00 0.00 75 1010.6
20260507230056 49 0 0.0 0.0 0.00 0.00 0.00 76 1010.5
20260507224552 49 0 0.0 0.0 0.00 0.00 0.00 76 1010.6
20260507223050 49 0 0.0 0.0 0.00 0.00 0.00 76 1010.6
20260507221554 49 0 0.0 0.0 0.00 0.00 0.00 76 1010.7
20260507220055 50 0 0.0 0.0 0.00 0.00 0.00 75 1010.8
20260507214604 50 0 0.0 0.0 0.00 0.00 0.00 75 1010.7
20260507213056 50 0 0.0 0.0 0.00 0.00 0.00 75 1010.8
20260507211551 50 0 0.0 0.0 0.00 0.00 0.00 75 1010.7
20260507210105 51 0 0.0 0.0 0.00 0.00 0.00 74 1010.7
20260507204557 52 0 0.0 0.0 0.00 0.00 0.00 73 1010.6
20260507203105 53 0 0.0 0.0 0.00 0.00 0.00 70 1010.4
20260507201557 53 0 0.0 0.0 0.00 0.00 0.00 69 1010.4
20260507200107 53 0 0.0 0.0 0.00 0.00 0.00 68 1010.5
20260507194556 54 0 0.0 0.0 0.00 0.00 0.00 66 1010.2
20260507193058 55 0 0.0 0.0 0.00 0.00 0.00 63 1010.1
20260507191551 56 0 0.0 0.0 0.00 0.00 0.00 62 1010.0
20260507190105 56 0 0.0 0.0 0.00 0.00 0.00 60 1010.0
20260507184603 56 0 0.0 0.0 0.00 0.00 0.00 58 1009.8